This is the latest recevied weather packets stored in our database for station/object WA4IKQ. If no packets are shown the sender has not sent any weather packets the latest 10 day(s).
| Time | Temp. | Humidity | Pressure | Rain* | Wind** | Luminosity | Snow |
|---|---|---|---|---|---|---|---|
| 1777145707 | 31.11° C | 40% | 1010.1 hPa | 0 mm | 2.24 m/s, 188° | - | - |
| 1777144510 | 31.11° C | 42% | 1010.4 hPa | 0 mm | 0.45 m/s, 93° | - | - |
| 1777144505 | 31.11° C | 40% | 1010.4 hPa | 0 mm | 0.89 m/s, 210° | - | - |
| 1777144205 | 31.11° C | 42% | 1010.4 hPa | 0 mm | 0.45 m/s, 93° | - | - |
| 1777143906 | 30.56° C | 42% | 1010.5 hPa | 0 mm | 2.68 m/s, 166° | - | - |
| 1777143606 | 30.56° C | 42% | 1010.7 hPa | 0 mm | 1.34 m/s, 177° | - | - |
| 1777143309 | 30.56° C | 42% | 1010.8 hPa | 0 mm | 0 m/s | - | - |
| 1777143007 | 30.56° C | 41% | 1010.9 hPa | 0 mm | 2.24 m/s, 228° | - | - |
| 1777143003 | 31.11° C | 41% | 1010.9 hPa | 0 mm | 2.68 m/s, 166° | - | - |
| 1777142704 | 31.11° C | 41% | 1010.9 hPa | 0 mm | 2.68 m/s, 166° | - | - |
| 1777142404 | 31.11° C | 40% | 1011 hPa | 0 mm | 0.89 m/s, 228° | - | - |
| 1777142104 | 31.67° C | 39% | 1011 hPa | 0 mm | 4.02 m/s, 214° | - | - |
| 1777141805 | 32.22° C | 38% | 1011 hPa | 0 mm | 0.89 m/s, 180° | - | - |
| 1777141505 | 32.22° C | 40% | 1011.1 hPa | 0 mm | 2.24 m/s, 239° | - | - |
| 1777141209 | 32.22° C | 39% | 1011.1 hPa | 0 mm | 2.24 m/s, 204° | - | - |
| 1777141199 | 32.22° C | 39% | 1011.2 hPa | 0 mm | 1.79 m/s, 198° | - | - |
| 1777140906 | 32.22° C | 38% | 1011.1 hPa | 0 mm | 3.13 m/s, 235° | - | - |
| 1777140603 | 32.22° C | 39% | 1011.2 hPa | 0 mm | 1.79 m/s, 198° | - | - |
| 1777140304 | 32.22° C | 39% | 1011.2 hPa | 0 mm | 0.45 m/s, 276° | - | - |
| 1777140004 | 32.22° C | 38% | 1011.2 hPa | 0 mm | 3.13 m/s, 222° | - | - |
| 1777139704 | 32.22° C | 40% | 1011.2 hPa | 0 mm | 1.34 m/s, 287° | - | - |
| 1777139404 | 32.22° C | 39% | 1011.2 hPa | 0 mm | 1.79 m/s, 186° | - | - |
| 1777139105 | 31.67° C | 39% | 1011.3 hPa | 0 mm | 1.79 m/s, 160° | - | - |
| 1777138805 | 31.67° C | 39% | 1011.3 hPa | 0 mm | 0.45 m/s, 354° | - | - |
| 1777138502 | 31.67° C | 41% | 1011.5 hPa | 0 mm | 0.89 m/s, 44° | - | - |
* Rain latest hour (hover to see other rain measurements)
** Current wind speed in m/s (hover to see current wind gust speed)